Location: Brede
(50.9167°N, 0.6000°E)
Time: 03:35:05
(UTC+00:00)

SL-19 R/B - Pass Details

Date: 08 August 2020
Orbit: 795 x 1010 km, 99.4° (Epoch: 25 September)

Event Time Altitude Azimuth Distance (km) Brightness Sun altitude
Rises 01:34:40 0° 15° (NNE) 3,678 9.1 -20.1°
Reaches altitude 10° 01:37:11 10° 13° (NNE) 2,701 8.0 -20.0°
Maximum altitude 01:43:13 74° 290° (WNW) 962 4.4 -19.6°
Enters shadow 01:45:47 35° 213° (SSW) 1,435 4.8 -19.4°
